CUBESX-HSE 3 (RS42S)

Last updated on Sun Dec 14 2025 00:03:11 GMT+0000 (Coordinated Universal Time)

1 57178U 23091N 25347.33594462 .00021697 00000+0 84802-3 0 9999 2 57178 97.5376 46.0286 0012795 34.5282 325.6784 15.25808126136037
UTC large
Height (km)
Speed (km/s)
/
Latitude / Longitude
Inclination (degrees)
Orbital Period (minutes)
Azimuth
Elevation
Range (km)
Doppler Factor

Next 0 passes for location: London (51.5072 / 0.1276)

Sorry there are no passes over London.